• Em Portugal
  • Lista de países
  • Para 7 dias
  • Temperatura da água
  • Mapas de satélite
  • Mapa do tempo
  • Widgets de tempo
  • user-avatar
    Iniciar Sessão

    Previsão horária em Tirana

    Hoje, 15 Julho, Domingo

    Tempo Temperatura Precipitação Vento Pressão Humidade
    00:00 +24°C° 0 mm 2 m/s 753 mmHg 73%
    01:00 +24°C° 0 mm 2 m/s 753 mmHg 69%
    02:00 +23°C° 0 mm 2 m/s 753 mmHg 69%
    03:00 +23°C° 0 mm 2 m/s 753 mmHg 68%
    04:00 +23°C° 0 mm 2 m/s 753 mmHg 68%
    05:00 +24°C° 0 mm 2 m/s 753 mmHg 65%
    06:00 +26°C° 0 mm 2 m/s 752 mmHg 62%
    07:00 +28°C° 0 mm 1 m/s 752 mmHg 56%
    08:00 +30°C° 0 mm 1 m/s 752 mmHg 50%
    09:00 +32°C° 0 mm 2 m/s 752 mmHg 44%
    10:00 +34°C° 0 mm 2 m/s 752 mmHg 38%
    11:00 +35°C° 0 mm 2 m/s 752 mmHg 36%
    12:00 +35°C° 0 mm 3 m/s 752 mmHg 34%
    13:00 +36°C° 0 mm 4 m/s 752 mmHg 32%
    14:00 +35°C° 0 mm 4 m/s 751 mmHg 34%
    15:00 +35°C° 0 mm 4 m/s 751 mmHg 36%
    16:00 +34°C° 0 mm 4 m/s 751 mmHg 38%
    17:00 +31°C° 0 mm 3 m/s 751 mmHg 45%
    18:00 +29°C° 0 mm 3 m/s 751 mmHg 52%
    19:00 +26°C° 0 mm 2 m/s 751 mmHg 60%
    20:00 +26°C° 0 mm 2 m/s 751 mmHg 59%
    21:00 +25°C° 0 mm 2 m/s 752 mmHg 59%
    22:00 +24°C° 0 mm 1 m/s 752 mmHg 58%
    23:00 +24°C° 0 mm 1 m/s 752 mmHg 57%

    Amanhã, 16 Julho, Segunda-feira

    Tempo Temperatura Precipitação Vento Pressão Humidade
    00:00 +24°C° 0 mm 1 m/s 752 mmHg 56%
    01:00 +24°C° 0 mm 1 m/s 752 mmHg 54%
    02:00 +23°C° 0 mm 1 m/s 752 mmHg 55%
    03:00 +23°C° 0 mm 1 m/s 752 mmHg 55%
    04:00 +23°C° 0 mm 1 m/s 752 mmHg 56%
    05:00 +25°C° 0 mm 1 m/s 752 mmHg 54%
    06:00 +27°C° 0 mm 1 m/s 752 mmHg 52%
    07:00 +28°C° 0 mm 1 m/s 752 mmHg 50%
    08:00 +30°C° 0 mm 1 m/s 752 mmHg 47%
    09:00 +31°C° 0 mm 1 m/s 752 mmHg 44%
    10:00 +34°C° 0 mm 2 m/s 752 mmHg 40%
    11:00 +34°C° 0 mm 3 m/s 752 mmHg 40%
    12:00 +35°C° 0 mm 3 m/s 752 mmHg 39%
    13:00 +35°C° 0 mm 4 m/s 751 mmHg 38%
    14:00 +35°C° 0 mm 4 m/s 751 mmHg 40%
    15:00 +34°C° 0 mm 3 m/s 751 mmHg 42%
    16:00 +34°C° 0 mm 3 m/s 751 mmHg 44%
    17:00 +31°C° 0 mm 2 m/s 751 mmHg 50%
    18:00 +29°C° 0 mm 2 m/s 751 mmHg 57%
    19:00 +27°C° 0 mm 1 m/s 751 mmHg 63%
    20:00 +26°C° 0 mm 1 m/s 751 mmHg 64%
    21:00 +25°C° 0 mm 1 m/s 751 mmHg 65%
    22:00 +25°C° 0 mm 1 m/s 751 mmHg 65%
    23:00 +24°C° 0,1 mm 1 m/s 751 mmHg 64%

    Depois de amanhã, 17 Julho, Terça-feira

    Tempo Temperatura Precipitação Vento Pressão Humidade
    00:00 +24°C° 0,1 mm 2 m/s 751 mmHg 64%
    01:00 +24°C° 0,1 mm 2 m/s 751 mmHg 63%
    02:00 +24°C° 0,3 mm 2 m/s 750 mmHg 63%
    03:00 +22°C° 0,3 mm 3 m/s 750 mmHg 63%
    04:00 +22°C° 0,3 mm 3 m/s 750 mmHg 63%
    05:00 +25°C° 0,5 mm 3 m/s 749 mmHg 62%
    06:00 +26°C° 0,5 mm 4 m/s 749 mmHg 61%
    07:00 +28°C° 0,5 mm 4 m/s 749 mmHg 59%
    08:00 +29°C° 0 mm 3 m/s 748 mmHg 53%
    09:00 +31°C° 0 mm 3 m/s 748 mmHg 46%
    10:00 +34°C° 0 mm 2 m/s 748 mmHg 39%
    11:00 +34°C° 0 mm 3 m/s 748 mmHg 40%
    12:00 +35°C° 0 mm 4 m/s 748 mmHg 40%
    13:00 +35°C° 0 mm 5 m/s 747 mmHg 40%
    14:00 +34°C° 0,1 mm 5 m/s 747 mmHg 44%
    15:00 +33°C° 0,1 mm 6 m/s 747 mmHg 48%
    16:00 +32°C° 0,1 mm 6 m/s 747 mmHg 52%
    17:00 +29°C° 0,1 mm 6 m/s 747 mmHg 59%
    18:00 +28°C° 0,1 mm 5 m/s 748 mmHg 67%
    19:00 +26°C° 0,1 mm 4 m/s 748 mmHg 74%
    20:00 +25°C° 0,1 mm 4 m/s 748 mmHg 78%
    21:00 +23°C° 0,1 mm 4 m/s 749 mmHg 82%
    22:00 +22°C° 0,1 mm 4 m/s 749 mmHg 86%
    23:00 +22°C° 0,1 mm 3 m/s 749 mmHg 86%

    18 Julho, Quarta-feira

    Tempo Temperatura Precipitação Vento Pressão Humidade
    00:00 +22°C° 0,1 mm 3 m/s 749 mmHg 87%
    01:00 +21°C° 0,1 mm 3 m/s 749 mmHg 88%
    02:00 +21°C° 0,2 mm 3 m/s 749 mmHg 89%
    03:00 +21°C° 0,2 mm 2 m/s 749 mmHg 90%
    04:00 +20°C° 0,2 mm 2 m/s 749 mmHg 90%
    05:00 +23°C° 0,1 mm 2 m/s 749 mmHg 84%
    06:00 +24°C° 0,1 mm 2 m/s 749 mmHg 77%
    07:00 +26°C° 0,1 mm 2 m/s 749 mmHg 70%
    08:00 +28°C° 0 mm 2 m/s 749 mmHg 63%
    09:00 +29°C° 0 mm 2 m/s 750 mmHg 55%
    10:00 +31°C° 0 mm 2 m/s 750 mmHg 48%
    11:00 +31°C° 0 mm 3 m/s 749 mmHg 47%
    12:00 +33°C° 0 mm 4 m/s 749 mmHg 45%
    13:00 +34°C° 0 mm 5 m/s 749 mmHg 44%
    14:00 +33°C° 0 mm 6 m/s 749 mmHg 45%
    15:00 +33°C° 0 mm 6 m/s 749 mmHg 47%
    16:00 +32°C° 0 mm 6 m/s 749 mmHg 49%
    17:00 +29°C° 0 mm 5 m/s 749 mmHg 57%
    18:00 +27°C° 0 mm 5 m/s 749 mmHg 64%
    19:00 +26°C° 0 mm 4 m/s 750 mmHg 72%
    20:00 +25°C° 0 mm 4 m/s 750 mmHg 74%
    21:00 +23°C° 0 mm 4 m/s 750 mmHg 76%
    22:00 +22°C° 0 mm 3 m/s 750 mmHg 78%
    23:00 +22°C° 0 mm 3 m/s 750 mmHg 78%

    19 Julho, Quinta-feira

    Tempo Temperatura Precipitação Vento Pressão Humidade
    00:00 +21°C° 0 mm 3 m/s 750 mmHg 77%
    01:00 +21°C° 0 mm 3 m/s 750 mmHg 77%
    02:00 +21°C° 0 mm 2 m/s 750 mmHg 77%
    03:00 +20°C° 0 mm 2 m/s 750 mmHg 77%
    04:00 +20°C° 0 mm 2 m/s 750 mmHg 76%
    05:00 +23°C° 0 mm 2 m/s 750 mmHg 70%
    06:00 +25°C° 0 mm 1 m/s 750 mmHg 64%
    07:00 +26°C° 0 mm 1 m/s 750 mmHg 58%
    08:00 +28°C° 0 mm 2 m/s 750 mmHg 53%
    09:00 +29°C° 0 mm 2 m/s 750 mmHg 48%
    10:00 +30°C° 0 mm 3 m/s 750 mmHg 43%
    11:00 +31°C° 0 mm 3 m/s 750 mmHg 42%
    12:00 +32°C° 0 mm 4 m/s 750 mmHg 41%
    13:00 +33°C° 0 mm 5 m/s 750 mmHg 41%
    14:00 +33°C° 0 mm 5 m/s 750 mmHg 43%
    15:00 +32°C° 0 mm 5 m/s 750 mmHg 45%
    16:00 +32°C° 0 mm 5 m/s 750 mmHg 47%
    17:00 +29°C° 0 mm 5 m/s 750 mmHg 55%
    18:00 +28°C° 0 mm 4 m/s 750 mmHg 62%
    19:00 +26°C° 0 mm 3 m/s 751 mmHg 70%
    20:00 +25°C° 0,1 mm 3 m/s 751 mmHg 72%
    21:00 +24°C° 0,1 mm 3 m/s 751 mmHg 73%
    22:00 +24°C° 0,1 mm 2 m/s 751 mmHg 75%
    23:00 +23°C° 0 mm 2 m/s 751 mmHg 75%

    20 Julho, Sexta-feira

    Tempo Temperatura Precipitação Vento Pressão Humidade
    00:00 +23°C° 0 mm 2 m/s 751 mmHg 75%
    01:00 +23°C° 0 mm 2 m/s 751 mmHg 74%
    02:00 +23°C° 0 mm 2 m/s 751 mmHg 74%
    03:00 +21°C° 0 mm 2 m/s 751 mmHg 74%
    04:00 +21°C° 0 mm 2 m/s 751 mmHg 74%
    05:00 +24°C° 0 mm 2 m/s 751 mmHg 69%
    06:00 +26°C° 0 mm 2 m/s 751 mmHg 65%
    07:00 +27°C° 0 mm 1 m/s 751 mmHg 60%
    08:00 +29°C° 0 mm 2 m/s 751 mmHg 55%
    09:00 +31°C° 0 mm 2 m/s 751 mmHg 50%
    10:00 +32°C° 0 mm 2 m/s 751 mmHg 45%
    11:00 +34°C° 0 mm 3 m/s 751 mmHg 44%
    12:00 +34°C° 0 mm 4 m/s 751 mmHg 43%
    13:00 +35°C° 0 mm 4 m/s 751 mmHg 42%
    14:00 +34°C° 0 mm 4 m/s 751 mmHg 44%
    15:00 +34°C° 0 mm 4 m/s 751 mmHg 46%
    16:00 +33°C° 0 mm 4 m/s 751 mmHg 48%
    17:00 +30°C° 0 mm 3 m/s 751 mmHg 55%
    18:00 +28°C° 0 mm 3 m/s 751 mmHg 63%
    19:00 +26°C° 0 mm 2 m/s 751 mmHg 70%
    20:00 +26°C° 0 mm 1 m/s 752 mmHg 72%
    21:00 +25°C° 0 mm 1 m/s 752 mmHg 73%
    22:00 +25°C° 0 mm 1 m/s 752 mmHg 75%
    23:00 +24°C° 0 mm 1 m/s 752 mmHg 76%
    Mostrar mais